DW7999 Weather Reports


time (UTC)temp
F
wind
direction
speed
knots
gust
knots
rain 1hr
in
rain 24hr
in
rain mn
in
humidity
%
barometer
mb
20260504081600 53 244 8.7 16.5 0.00 0.00 0.00 68 1007.9
20260504081556 53 207 0.0 4.3 0.00 0.00 0.00 68 1006.3
20260504081100 53 204 8.7 17.4 0.00 0.00 0.00 68 1007.8
20260504081056 53 196 0.9 3.5 0.00 0.00 0.00 69 1006.3
20260504080600 53 211 7.8 17.4 0.00 0.00 0.00 68 1007.8
20260504080555 53 226 0.0 4.3 0.00 0.00 0.00 68 1006.4
20260504070105 53 173 9.6 20.0 0.00 0.00 0.00 66 1008.4
20260504050600 53 200 7.8 20.0 0.00 0.00 0.00 67 1010.2
20260504050522 53 180 0.0 3.5 0.00 0.00 0.00 68 1008.8
20260504050021 53 209 0.9 3.5 0.00 0.00 0.00 68 1008.8
20260504045600 53 202 8.7 21.7 0.00 0.00 0.00 67 1010.3
20260504045520 53 213 0.0 3.5 0.00 0.00 0.00 67 1008.8
20260504045100 53 182 7.8 18.2 0.00 0.00 0.00 67 1010.4
20260504045021 53 194 0.0 5.2 0.00 0.00 0.00 68 1008.7
20260504044605 53 186 8.7 19.1 0.00 0.00 0.00 68 1010.4
20260504044528 53 219 0.0 5.2 0.00 0.00 0.00 68 1008.7
20260504044100 53 208 8.7 19.1 0.00 0.00 0.00 68 1010.4
20260504044018 53 200 0.9 6.1 0.00 0.00 0.00 68 1008.8
20260504043600 53 217 8.7 14.8 0.00 0.00 0.00 68 1010.4
20260504043516 53 207 0.0 6.1 0.00 0.00 0.00 69 1008.8
20260504043100 53 217 7.8 20.0 0.00 0.00 0.00 68 1010.5
20260504043024 53 197 0.0 4.3 0.00 0.00 0.00 69 1008.9
20260504042600 53 206 10.4 20.0 0.00 0.00 0.00 68 1010.5
20260504042514 53 213 0.9 4.3 0.00 0.00 0.00 68 1008.9
20260504042100 53 198 7.8 18.2 0.00 0.00 0.00 68 1010.5
20260504042014 53 209 0.0 4.3 0.00 0.00 0.00 69 1009.0
20260504041558 53 194 8.7 17.4 0.00 0.00 0.00 68 1010.6
20260504041509 53 223 0.9 5.2 0.00 0.00 0.00 69 1009.0
20260504041058 53 184 7.8 17.4 0.00 0.00 0.00 69 1010.6
20260504041009 53 162 0.0 4.3 0.00 0.00 0.00 69 1009.1
20260504040604 53 195 7.8 17.4 0.00 0.00 0.00 69 1010.7
20260504040508 52 210 0.0 4.3 0.00 0.00 0.00 69 1009.1
20260504040107 52 219 7.8 17.4 0.00 0.00 0.00 69 1010.8
20260504040016 53 174 0.0 5.2 0.00 0.00 0.00 69 1009.2
20260504035601 52 201 7.8 17.4 0.00 0.00 0.00 69 1010.8
20260504035506 53 219 0.0 4.3 0.00 0.00 0.00 69 1009.3
20260504035100 52 213 7.8 15.6 0.00 0.00 0.00 69 1010.9
20260504035012 52 181 0.9 3.5 0.00 0.00 0.00 69 1009.4
20260504034615 52 211 7.8 15.6 0.00 0.00 0.00 69 1011.0
20260504034504 52 184 0.0 5.2 0.00 0.00 0.00 70 1009.5
20260504034100 52 193 7.8 13.9 0.00 0.00 0.00 70 1011.0
20260504034003 52 171 0.9 5.2 0.00 0.00 0.00 71 1009.5
20260504033600 52 174 7.0 14.8 0.00 0.00 0.00 71 1011.0
20260504033506 52 177 0.9 7.0 0.00 0.00 0.00 71 1009.5
20260504033100 52 201 7.0 14.8 0.00 0.00 0.00 71 1011.0
20260504033003 52 165 0.9 7.0 0.00 0.00 0.00 72 1009.6
20260504032600 52 200 7.8 14.8 0.00 0.00 0.00 71 1011.1
20260504032504 52 185 0.0 3.5 0.00 0.00 0.00 72 1009.7
20260504032100 52 175 5.2 13.0 0.00 0.00 0.00 72 1011.2
20260504032004 52 163 0.0 6.1 0.00 0.00 0.00 72 1009.7
20260504031600 52 194 7.0 13.9 0.00 0.00 0.00 72 1011.2
20260504031502 52 174 0.0 6.1 0.00 0.00 0.00 73 1009.7
20260504031100 52 181 4.3 13.9 0.00 0.00 0.00 72 1011.3
20260504031003 52 173 0.0 3.5 0.00 0.00 0.00 73 1009.8
20260504030600 52 186 6.1 13.0 0.00 0.00 0.00 71 1011.4
20260504030501 52 225 0.0 2.6 0.00 0.00 0.00 71 1009.8
20260504030058 52 190 7.8 14.8 0.00 0.00 0.00 71 1011.5
20260504030001 52 173 0.0 4.3 0.00 0.00 0.00 71 1009.9
20260504025600 52 205 7.8 14.8 0.00 0.00 0.00 71 1011.5
20260504025501 52 184 0.0 4.3 0.00 0.00 0.00 71 1010.0
20260504025102 52 181 0.0 3.5 0.00 0.00 0.00 71 1010.1
20260504025100 52 180 7.8 13.9 0.00 0.00 0.00 71 1011.6
20260504024601 52 200 0.0 3.5 0.00 0.00 0.00 72 1010.1
20260504024104 52 177 0.0 1.7 0.00 0.00 0.00 71 1010.2
20260504024059 52 194 6.1 12.2 0.00 0.00 0.00 70 1011.7
20260504023600 52 165 0.0 3.5 0.00 0.00 0.00 71 1010.2
20260504023100 52 198 7.0 13.9 0.00 0.00 0.00 70 1011.7
20260504022600 53 205 0.0 2.6 0.00 0.00 0.00 71 1010.2
20260504022100 53 178 0.0 0.9 0.00 0.00 0.00 70 1010.3
20260504022059 53 188 5.2 10.4 0.00 0.00 0.00 70 1011.9
20260504021602 53 192 0.0 1.7 0.00 0.00 0.00 70 1010.3
20260504021557 53 198 5.2 13.0 0.00 0.00 0.00 69 1011.9
20260504021100 53 178 0.0 1.7 0.00 0.00 0.00 70 1010.3
20260504020602 53 207 7.0 13.9 0.00 0.00 0.00 68 1011.8
20260504020559 53 227 0.0 1.7 0.00 0.00 0.00 69 1010.3
20260504020116 53 202 0.0 5.2 0.00 0.00 0.00 69 1010.4
20260504020058 53 194 7.8 13.0 0.00 0.00 0.00 68 1011.9
20260504015600 53 208 5.2 14.8 0.00 0.00 0.00 69 1011.9
20260504015559 53 190 0.0 1.7 0.00 0.00 0.00 69 1010.4
20260504015059 53 207 7.0 14.8 0.00 0.00 0.00 68 1011.9
20260504014618 53 184 7.0 13.9 0.00 0.00 0.00 68 1011.8
20260504014605 53 204 0.0 0.9 0.00 0.00 0.00 69 1010.3
20260504014059 53 197 7.8 13.9 0.00 0.00 0.00 68 1011.9
20260504013600 53 209 3.5 11.3 0.00 0.00 0.00 68 1011.9
20260504013558 53 186 0.0 1.7 0.00 0.00 0.00 69 1010.3
20260504013106 53 173 0.0 0.9 0.00 0.00 0.00 68 1010.3
20260504013104 53 217 6.1 11.3 0.00 0.00 0.00 68 1011.8
20260504012559 53 213 0.0 0.9 0.00 0.00 0.00 68 1010.4
20260504012101 53 210 5.2 12.2 0.00 0.00 0.00 68 1011.9
20260504012058 53 211 0.0 0.9 0.00 0.00 0.00 68 1010.3
20260504011606 53 217 6.1 10.4 0.00 0.00 0.00 68 1011.9
20260504011559 53 218 0.0 0.9 0.00 0.00 0.00 68 1010.3
20260504011104 53 182 4.3 12.2 0.00 0.00 0.00 67 1011.9
20260504011100 53 162 0.0 0.9 0.00 0.00 0.00 67 1010.3
20260504010600 53 216 4.3 12.2 0.00 0.00 0.00 66 1011.9
20260504010557 53 188 0.0 0.9 0.00 0.00 0.00 67 1010.4
20260504010058 53 229 0.0 0.0 0.00 0.00 0.00 67 1010.4
20260504005600 54 229 6.1 16.5 0.00 0.00 0.00 66 1012.0
20260504005556 54 227 0.0 0.0 0.00 0.00 0.00 66 1010.3
20260504005100 54 225 5.2 16.5 0.00 0.00 0.00 66 1012.1
20260504004602 54 244 0.0 0.9 0.00 0.00 0.00 66 1010.5
20260504004558 54 212 7.0 13.9 0.00 0.00 0.00 66 1012.2
20260504004157 54 240 0.0 7.0 0.00 0.00 0.00 67 1010.5
20260504004100 54 232 7.0 13.9 0.00 0.00 0.00 66 1012.1
20260504003603 54 261 7.0 20.9 0.00 0.00 0.00 66 1012.1
20260504003555 54 237 0.0 9.6 0.00 0.00 0.00 66 1010.5
20260504003104 54 249 7.8 20.9 0.00 0.00 0.00 66 1012.2
20260504003058 54 233 0.0 4.3 0.00 0.00 0.00 67 1010.6
20260504002600 54 217 7.8 20.0 0.00 0.00 0.00 66 1012.3
20260504002100 54 232 5.2 17.4 0.00 0.00 0.00 67 1012.3
20260504002056 54 242 0.0 0.9 0.00 0.00 0.00 67 1010.7
20260504001623 54 241 7.0 17.4 0.00 0.00 0.00 67 1012.3
20260504001601 54 233 0.0 5.2 0.00 0.00 0.00 67 1010.7
20260504001100 54 236 9.6 17.4 0.00 0.00 0.00 67 1012.3
20260504001056 54 212 0.0 6.1 0.00 0.00 0.00 67 1010.7
20260504000559 54 198 7.0 16.5 0.00 0.00 0.00 67 1012.2
20260504000554 54 265 0.0 6.1 0.00 0.00 0.00 68 1010.7
20260504000058 55 269 0.0 6.1 0.00 0.00 0.00 67 1010.7
20260503235559 55 238 7.8 20.0 0.00 0.00 0.00 66 1012.2
20260503235554 55 259 0.9 7.0 0.00 0.00 0.00 66 1010.6
20260503235100 56 201 7.8 20.0 0.00 0.00 0.00 66 1012.3
20260503235054 56 217 0.0 7.0 0.00 0.00 0.00 66 1010.7
20260503234559 56 213 9.6 20.0 0.00 0.00 0.00 64 1012.2
20260503234554 56 258 3.5 11.3 0.00 0.00 0.00 65 1010.5
20260503234103 57 240 9.6 21.7 0.00 0.00 0.00 63 1012.2
20260503234054 57 232 3.5 11.3 0.00 0.00 0.00 63 1010.5
20260503233559 57 207 8.7 21.7 0.00 0.00 0.00 62 1012.1
20260503233553 57 228 2.6 8.7 0.00 0.00 0.00 62 1010.4
20260503233103 58 241 10.4 21.7 0.00 0.00 0.00 60 1012.0
20260503233053 58 207 2.6 9.6 0.00 0.00 0.00 60 1010.3
20260503232558 58 234 6.1 20.9 0.00 0.00 0.00 59 1012.0
20260503232555 58 239 1.7 8.7 0.00 0.00 0.00 59 1010.2
20260503232058 59 249 7.0 20.9 0.00 0.00 0.00 56 1011.9
20260503232053 59 277 4.3 8.7 0.00 0.00 0.00 56 1010.2
20260503231559 60 268 7.8 19.1 0.00 0.00 0.00 50 1011.8
20260503231553 60 267 4.3 7.8 0.00 0.00 0.00 51 1010.1
20260503231100 60 242 9.6 21.7 0.00 0.00 0.00 45 1011.8
20260503231053 60 238 0.9 7.0 0.00 0.00 0.00 45 1010.0
20260503230559 60 284 7.0 21.7 0.00 0.00 0.00 45 1011.7
20260503230551 60 263 0.9 7.0 0.00 0.00 0.00 46 1009.9
20260503230108 61 228 2.6 7.8 0.00 0.00 0.00 45 1010.0
20260503230100 61 217 9.6 26.1 0.00 0.00 0.00 45 1011.7
20260503225600 61 205 10.4 26.1 0.00 0.00 0.00 44 1011.8
20260503225554 61 254 1.7 6.1 0.00 0.00 0.00 44 1010.0
20260503225100 61 243 10.4 20.9 0.00 0.00 0.00 44 1011.8
20260503225051 61 234 3.5 6.1 0.00 0.00 0.00 44 1010.1
20260503224558 61 223 8.7 20.9 0.00 0.00 0.00 45 1011.8
20260503224100 61 234 8.7 18.2 0.00 0.00 0.00 45 1011.9
20260503224051 61 238 2.6 7.8 0.00 0.00 0.00 45 1010.1
20260503223600 61 209 9.6 18.2 0.00 0.00 0.00 45 1011.9
20260503223551 61 205 0.0 7.0 0.00 0.00 0.00 45 1010.1
20260503223100 61 260 10.4 17.4 0.00 0.00 0.00 45 1011.9
20260503223050 61 217 2.6 7.0 0.00 0.00 0.00 45 1010.2
20260503222559 61 232 7.8 20.9 0.00 0.00 0.00 45 1011.9
20260503222550 61 236 2.6 6.1 0.00 0.00 0.00 46 1010.1
20260503222100 61 246 6.1 20.9 0.00 0.00 0.00 45 1011.9
20260503222051 61 242 2.6 7.0 0.00 0.00 0.00 45 1010.1
20260503221558 61 217 10.4 19.1 0.00 0.00 0.00 44 1011.8
20260503221550 61 245 2.6 7.0 0.00 0.00 0.00 45 1010.2
20260503221059 61 205 8.7 25.2 0.00 0.00 0.00 45 1011.9
20260503221049 61 189 1.7 7.0 0.00 0.00 0.00 46 1010.2
20260503220602 62 209 12.2 25.2 0.00 0.00 0.00 43 1012.0
20260503220549 62 235 3.5 7.0 0.00 0.00 0.00 43 1010.2
20260503220105 62 207 8.7 26.9 0.00 0.00 0.00 44 1011.8
20260503220049 62 220 2.6 7.0 0.00 0.00 0.00 44 1010.2
20260503215558 62 215 11.3 26.9 0.00 0.00 0.00 43 1011.9
20260503215549 62 226 2.6 7.0 0.00 0.00 0.00 44 1010.3
20260503215100 63 216 7.8 20.0 0.00 0.00 0.00 43 1011.9
20260503215047 63 227 2.6 7.8 0.00 0.00 0.00 42 1010.3
20260503214602 63 242 9.6 20.0 0.00 0.00 0.00 43 1012.0
20260503214549 63 236 1.7 7.8 0.00 0.00 0.00 44 1010.3
20260503214104 62 219 8.7 20.0 0.00 0.00 0.00 42 1012.1
20260503214047 62 243 1.7 7.0 0.00 0.00 0.00 42 1010.2
20260503213603 62 235 10.4 20.0 0.00 0.00 0.00 40 1012.1
20260503213547 62 224 2.6 6.1 0.00 0.00 0.00 41 1010.4
20260503213112 63 237 11.3 22.6 0.00 0.00 0.00 41 1012.0
20260503213049 62 238 0.9 6.1 0.00 0.00 0.00 42 1010.3
20260503212600 63 240 13.0 22.6 0.00 0.00 0.00 41 1012.1
20260503212547 63 205 3.5 8.7 0.00 0.00 0.00 42 1010.3
20260503212058 63 228 12.2 23.5 0.00 0.00 0.00 43 1012.1
20260503212047 63 238 4.3 8.7 0.00 0.00 0.00 43 1010.3
20260503211604 63 242 0.0 7.8 0.00 0.00 0.00 44 1010.4
20260503211600 63 223 8.7 23.5 0.00 0.00 0.00 43 1012.2
20260503211100 63 215 12.2 23.5 0.00 0.00 0.00 40 1012.2
20260503211046 63 196 3.5 8.7 0.00 0.00 0.00 40 1010.4
20260503210600 63 232 7.8 22.6 0.00 0.00 0.00 41 1012.1
20260503210547 63 246 1.7 7.8 0.00 0.00 0.00 41 1010.5
20260503210104 63 219 12.2 31.3 0.00 0.00 0.00 42 1012.1
20260503210046 63 232 3.5 7.8 0.00 0.00 0.00 42 1010.4
20260503205600 63 220 10.4 31.3 0.00 0.00 0.00 41 1012.2
20260503205545 63 228 3.5 7.8 0.00 0.00 0.00 42 1010.5
20260503205103 63 244 11.3 31.3 0.00 0.00 0.00 41 1012.2
20260503205045 63 240 2.6 9.6 0.00 0.00 0.00 41 1010.4
20260503204608 63 213 11.3 22.6 0.00 0.00 0.00 42 1012.2
20260503204545 63 238 4.3 9.6 0.00 0.00 0.00 40 1010.5
20260503204102 63 210 12.2 23.5 0.00 0.00 0.00 42 1012.1
20260503204044 63 238 2.6 7.0 0.00 0.00 0.00 41 1010.5
20260503203559 63 243 9.6 23.5 0.00 0.00 0.00 41 1012.2
20260503203544 63 197 1.7 6.1 0.00 0.00 0.00 42 1010.6
20260503203111 63 236 11.3 24.3 0.00 0.00 0.00 41 1012.2
20260503203049 63 232 3.5 7.8 0.00 0.00 0.00 41 1010.7
20260503202600 63 198 11.3 24.3 0.00 0.00 0.00 40 1012.3
20260503202545 63 194 2.6 7.0 0.00 0.00 0.00 41 1010.8
20260503202059 63 194 10.4 19.1 0.00 0.00 0.00 42 1012.3
20260503202043 63 205 2.6 7.0 0.00 0.00 0.00 42 1010.8
20260503201606 63 238 9.6 22.6 0.00 0.00 0.00 42 1012.3
20260503201542 63 221 0.0 7.0 0.00 0.00 0.00 42 1010.8
20260503201058 63 240 8.7 22.6 0.00 0.00 0.00 42 1012.3
20260503201044 63 227 0.9 9.6 0.00 0.00 0.00 44 1010.8
20260503200602 63 196 11.3 22.6 0.00 0.00 0.00 41 1012.4
20260503200541 63 255 3.5 9.6 0.00 0.00 0.00 42 1011.0
20260503200105 63 197 10.4 23.5 0.00 0.00 0.00 42 1012.5
20260503200054 63 213 3.5 8.7 0.00 0.00 0.00 43 1010.9
20260503195559 63 225 13.0 23.5 0.00 0.00 0.00 40 1012.5
20260503195540 63 202 4.3 8.7 0.00 0.00 0.00 41 1011.0
20260503195058 63 236 11.3 23.5 0.00 0.00 0.00 40 1012.5
20260503195039 63 245 2.6 7.8 0.00 0.00 0.00 41 1011.1
20260503194558 63 228 10.4 20.0 0.00 0.00 0.00 41 1012.4
20260503194539 63 230 1.7 7.0 0.00 0.00 0.00 42 1011.0
20260503194103 63 223 9.6 19.1 0.00 0.00 0.00 41 1012.6
20260503194038 63 236 3.5 7.8 0.00 0.00 0.00 42 1011.1
20260503193558 63 209 9.6 15.6 0.00 0.00 0.00 42 1012.7
20260503193537 64 238 3.5 7.8 0.00 0.00 0.00 44 1011.2
20260503193111 64 235 8.7 19.1 0.00 0.00 0.00 40 1012.7
20260503193040 64 265 2.6 7.0 0.00 0.00 0.00 41 1011.2
20260503192559 64 217 8.7 19.1 0.00 0.00 0.00 41 1012.9
20260503192536 64 215 2.6 9.6 0.00 0.00 0.00 41 1011.4
20260503192100 64 244 8.7 17.4 0.00 0.00 0.00 42 1012.9
20260503192035 64 246 3.5 10.4 0.00 0.00 0.00 43 1011.6
20260503191608 64 238 7.0 17.4 0.00 0.00 0.00 41 1013.0
20260503191541 63 263 3.5 10.4 0.00 0.00 0.00 41 1011.5
20260503191152 64 243 3.5 7.8 0.00 0.00 0.00 39 1011.7
20260503191100 64 231 6.1 17.4 0.00 0.00 0.00 39 1013.2
20260503190559 64 220 8.7 18.2 0.00 0.00 0.00 42 1013.3
20260503190532 64 234 0.9 6.1 0.00 0.00 0.00 42 1011.8
20260503190100 63 224 9.6 18.2 0.00 0.00 0.00 41 1013.4
20260503190032 63 246 1.7 6.1 0.00 0.00 0.00 42 1011.9
20260503185559 63 218 9.6 17.4 0.00 0.00 0.00 40 1013.4
20260503185531 63 221 1.7 7.8 0.00 0.00 0.00 40 1012.0
20260503185102 64 247 7.8 20.0 0.00 0.00 0.00 44 1013.5
20260503185032 64 256 1.7 7.8 0.00 0.00 0.00 42 1012.0
20260503184939 63 229 9.6 25.2 0.00 0.00 0.00 41 1013.5
20260503184539 63 246 0.0 9.6 0.00 0.00 0.00 40 1012.0
20260503184057 63 246 10.4 25.2 0.00 0.00 0.00 40 1013.7
20260503184030 63 225 2.6 10.4 0.00 0.00 0.00 40 1012.2
20260503183559 63 242 10.4 25.2 0.00 0.00 0.00 45 1013.6
20260503183530 63 290 1.7 10.4 0.00 0.00 0.00 45 1012.1
20260503183109 63 209 10.4 25.2 0.00 0.00 0.00 43 1013.7
20260503183028 63 258 2.6 8.7 0.00 0.00 0.00 43 1012.2
20260503182603 62 190 10.4 22.6 0.00 0.00 0.00 42 1013.8
20260503182528 62 184 0.0 8.7 0.00 0.00 0.00 42 1012.3
20260503182059 63 220 4.3 22.6 0.00 0.00 0.00 45 1014.0
20260503182032 63 265 0.9 7.8 0.00 0.00 0.00 44 1012.4
20260503181611 63 226 9.6 21.7 0.00 0.00 0.00 42 1013.9
20260503181527 63 237 0.9 7.0 0.00 0.00 0.00 41 1012.4
20260503181058 63 216 9.6 21.7 0.00 0.00 0.00 42 1014.0
20260503181027 63 240 0.0 9.6 0.00 0.00 0.00 44 1012.5
20260503180559 62 238 9.6 20.9 0.00 0.00 0.00 42 1014.1
20260503180527 62 260 0.0 9.6 0.00 0.00 0.00 42 1012.5
20260503180100 63 232 12.2 20.9 0.00 0.00 0.00 40 1014.1
20260503180042 63 228 0.0 7.8 0.00 0.00 0.00 41 1012.6
20260503175601 64 221 7.0 20.9 0.00 0.00 0.00 44 1014.3
20260503175525 64 239 0.0 7.8 0.00 0.00 0.00 44 1012.7
20260503175104 63 221 7.0 20.9 0.00 0.00 0.00 42 1014.2
20260503175022 63 236 0.0 7.8 0.00 0.00 0.00 43 1012.7
20260503174603 63 264 8.7 20.9 0.00 0.00 0.00 43 1014.4
20260503174526 63 275 1.7 7.0 0.00 0.00 0.00 45 1012.9
20260503174101 62 232 10.4 17.4 0.00 0.00 0.00 44 1014.3
20260503174021 62 251 0.0 4.3 0.00 0.00 0.00 42 1012.8
20260503173600 63 219 6.1 18.2 0.00 0.00 0.00 46 1014.5
20260503173520 63 252 0.0 6.1 0.00 0.00 0.00 46 1012.9
20260503173103 62 222 7.0 18.2 0.00 0.00 0.00 46 1014.5
20260503173025 62 237 0.9 8.7 0.00 0.00 0.00 49 1012.9
20260503172600 62 227 5.2 23.5 0.00 0.00 0.00 45 1014.6
20260503172517 62 263 1.7 8.7 0.00 0.00 0.00 45 1013.0
20260503172100 62 232 9.6 23.5 0.00 0.00 0.00 46 1014.7
20260503172018 62 254 0.0 3.5 0.00 0.00 0.00 49 1013.2
20260503171559 62 207 7.8 23.5 0.00 0.00 0.00 45 1014.7
20260503171516 63 239 0.0 6.1 0.00 0.00 0.00 50 1013.1
20260503171100 62 241 5.2 16.5 0.00 0.00 0.00 49 1014.9
20260503171014 62 273 0.0 7.8 0.00 0.00 0.00 52 1013.3
20260503170558 61 218 5.2 19.1 0.00 0.00 0.00 48 1014.9
20260503170513 61 242 1.7 7.8 0.00 0.00 0.00 49 1013.4
20260503150558 56 229 6.1 14.8 0.00 0.00 0.00 57 1016.2
20260503150542 56 240 0.9 3.5 0.00 0.00 0.00 58 1014.6
20260503150126 56 234 7.0 14.8 0.00 0.00 0.00 57 1016.1
20260503150122 55 242 6.1 16.5 0.00 0.00 0.00 59 1016.3
20260503131103 48 229 7.0 13.9 0.00 0.00 0.00 63 1016.5
20260503131007 48 263 0.0 1.7 0.00 0.00 0.00 65 1015.0
20260503130557 48 218 6.1 13.9 0.00 0.00 0.00 64 1016.4
20260503130506 48 234 0.0 2.6 0.00 0.00 0.00 64 1014.9
20260503110559 39 217 4.3 7.8 0.00 0.00 0.00 74 1016.5
20260503110538 39 201 0.0 0.0 0.00 0.00 0.00 75 1015.1